Location: Pradons
(44.4746°N, 4.3578°E)
Time: 19:53:49
(UTC+00:00)

Cosmos 1703 - Pass Details

Date: 15 August 2020
Orbit: 523 x 541 km, 82.5° (Epoch: 01 October)

Event Time Altitude Azimuth Distance (km) Brightness Sun altitude
Rises 01:10:58 0° 11° (N) 2,708 8.0 -28.5°
Reaches altitude 10° 01:14:25 10° 43° (NE) 1,806 6.8 -28.3°
Maximum altitude 01:16:02 12° 67° (ENE) 1,669 6.3 -28.2°
Drops below altitude 10° 01:17:38 10° 91° (E) 1,797 6.2 -28.1°
Enters shadow 01:18:12 - 98° (E) 1,899 6.2 -28.0°
